P/2017 U3 ( PanSTARRS )

Japanese version
Home page
Updated on March 3, 2018

---------------------------------------------------------------------

* Profile

Discovery Date October 28, 2017
Magnitude 21.7 mag
Discoverer Pan-STARRS 1 telescope (Haleakala)

* Pictures

* Orbital Elements

Epoch 2019 Apr. 27.0 TT = JDT 2458600.5
T 2019 Apr. 20.92381 TT                                 MPCW
q   4.4444773            (2000.0)            P               Q
n   0.08992316     Peri.  297.36171     -0.22491230     -0.97183435
a   4.9342559      Node   165.12302     +0.96245848     -0.23284341
e   0.0992609      Incl.   15.90840     +0.15194782     +0.03635863
P  10.96
From 58 observations 2016 Oct. 30-2017 Nov. 22, mean residual 0".5.

* Magnitudes Graph

        m1 = 10.5 + 5 log d + 10.0 log r

---------------------------------------------------------------------

The orbital elements are published on M.P.E.C. 2018-D91.
The magnitudes graphs are made with Comet for Windows.

---------------------------------------------------------------------

Copyright(C) Seiichi Yoshida (comet@aerith.net). All rights reserved.